Погода в Курьях

Россия / Свердловская область     56°54′41″N   62°06′49″E
темп.,
°C
ветер,
м/с
пор.,
м/с
влажн.,
%
обл.,
%
осадки,
мм/ч
давл.,
гПа
погр.,
м
15 мая, сб
сб1523:00+20з35425 0.0 102179
02:00+17з37533 0.0 1022115
05:00+16з375989 0.0 1022113
08:00+22зюз47418 0.0 1021328
11:00+28зюз47305 0.0 10201411
14:00+31зюз692197 0.0 10183206
17:00+30з69246 0.0 10183194
20:00+25з4104234 0.0 1017642
16 мая, вс
вс1623:00+21з375756 0.0 1018144
02:00+18зюз377270 0.8 1018123
05:00+17зюз415637 0.8 1018340
08:00+23з5144561 0.0 1019736
11:00+28зсз59275 0.0 10191546
14:00+31зсз691786 0.0 10183372
17:00+31з58165 0.0 10173881
20:00+25зюз3532100 0.0 101776
17 мая, пн
пн1723:00+21з311415 0.0 1018203
02:00+19з310525 0.0 1018182
05:00+17зюз311575 0.0 1018210
08:00+24з494065 0.0 1018385
11:00+30з582466 0.0 10173276
14:00+29зсз51024100 0.0 10162586
17:00+30з7102181 0.0 10153019
20:00+25з41034100 0.0 1015568
18 мая, вт
вт1823:00+20ссз225012 0.0 101629
02:00+17зюз126320 0.0 101611
05:00+17з3561100 0.0 1016100
08:00+21зсз364899 0.0 1017363
11:00+26сз46300 0.0 10162446
14:00+28сз582476 0.0 10153721
17:00+28сз592286 0.0 10143484
20:00+21св9124646 0.1 1016797
19 мая, ср
ср1923:00+14с117695 0.2 101914
02:00+13ссз228148 0.0 102131
05:00+11св23910 0.0 102260
08:00+16всв34722 0.0 1024558
11:00+21в22485 0.0 10231198
14:00+25в12357 0.0 10231896
17:00+25юв123322 0.0 10222034
20:00+21ююв355014 0.0 1022131